TimeCST,TemperatureF,Dew PointF,Humidity,Sea Level PressureIn,VisibilityMPH,Wind Direction,Wind SpeedMPH,Gust SpeedMPH,PrecipitationIn,Events,Conditions,WindDirDegrees,DateUTC
12:53 AM,55.0,41.0,59,29.87,10.0,South,9.2,16.1,N/A,,Clear,190,2013-02-07 06:53:00
1:53 AM,53.1,41.0,64,29.87,10.0,NW,3.5,-,N/A,,Overcast,310,2013-02-07 07:53:00
2:53 AM,52.0,41.0,66,29.87,10.0,SSE,4.6,-,N/A,,Overcast,150,2013-02-07 08:53:00
3:53 AM,52.0,42.1,69,29.86,10.0,South,4.6,-,N/A,,Overcast,170,2013-02-07 09:53:00
4:53 AM,50.0,46.0,86,29.86,6.0,SW,4.6,-,0.01,Rain,Light Rain,230,2013-02-07 10:53:00
5:38 AM,50.0,46.0,86,29.88,5.0,West,3.5,-,0.05,Rain,Light Rain,270,2013-02-07 11:38:00
5:53 AM,48.9,46.0,90,29.88,5.0,WNW,3.5,-,0.06,Rain,Light Rain,300,2013-02-07 11:53:00
6:08 AM,48.9,46.9,93,29.88,1.8,NW,3.5,-,0.02,Rain,Rain,310,2013-02-07 12:08:00
6:37 AM,48.9,46.9,93,29.88,2.0,West,3.5,-,0.15,Rain,Rain,270,2013-02-07 12:37:00
6:53 AM,48.9,46.9,93,29.88,1.8,West,3.5,-,0.18,Rain,Rain,260,2013-02-07 12:53:00
7:07 AM,48.9,46.9,93,29.89,2.0,West,4.6,-,0.04,Rain,Light Rain,280,2013-02-07 13:07:00
7:31 AM,48.9,46.9,93,29.90,3.0,West,5.8,-,0.08,Rain,Light Rain,270,2013-02-07 13:31:00
7:45 AM,48.9,46.0,90,29.92,2.5,WNW,9.2,-,0.10,Rain,Rain,290,2013-02-07 13:45:00
7:53 AM,48.9,46.0,90,29.92,2.0,WNW,9.2,-,0.13,Rain,Rain,290,2013-02-07 13:53:00
8:03 AM,48.0,46.0,93,29.94,2.0,NW,11.5,-,0.04,Rain,Rain,310,2013-02-07 14:03:00
8:53 AM,45.0,41.0,86,29.95,2.5,NNW,11.5,21.9,0.11,Rain,Light Rain,340,2013-02-07 14:53:00
9:01 AM,45.0,41.0,86,29.95,3.0,North,15.0,-,0.01,Rain,Light Rain,350,2013-02-07 15:01:00
9:16 AM,44.1,41.0,89,29.96,2.5,NW,11.5,18.4,0.03,Rain,Light Rain,320,2013-02-07 15:16:00
9:25 AM,44.1,39.9,85,29.96,3.0,NW,9.2,-,0.03,Rain,Light Rain,320,2013-02-07 15:25:00
9:53 AM,44.1,41.0,89,29.96,5.0,NNW,9.2,-,0.04,,Overcast,340,2013-02-07 15:53:00
10:53 AM,46.0,39.9,79,29.99,9.0,NW,9.2,-,N/A,,Clear,310,2013-02-07 16:53:00
11:53 AM,46.9,39.0,74,30.01,10.0,NNW,13.8,-,N/A,,Mostly Cloudy,330,2013-02-07 17:53:00
12:53 PM,51.1,39.9,66,29.99,10.0,North,11.5,20.7,N/A,,Clear,350,2013-02-07 18:53:00
1:53 PM,52.0,37.9,59,30.01,10.0,North,15.0,-,N/A,,Clear,350,2013-02-07 19:53:00
2:53 PM,51.1,37.0,59,30.01,9.0,NNW,15.0,-,N/A,,Clear,340,2013-02-07 20:53:00
3:53 PM,51.1,35.1,54,30.04,8.0,NNW,15.0,-,N/A,,Clear,340,2013-02-07 21:53:00
4:53 PM,48.0,34.0,58,30.07,6.0,NNW,13.8,-,N/A,,Haze,340,2013-02-07 22:53:00
5:53 PM,42.1,33.1,70,30.11,5.0,North,16.1,-,N/A,,Haze,350,2013-02-07 23:53:00
6:53 PM,37.0,30.0,76,30.16,5.0,NNW,10.4,-,N/A,,Haze,340,2013-02-08 00:53:00
7:06 PM,37.0,30.9,79,30.15,5.0,North,5.8,-,N/A,,Haze,360,2013-02-08 01:06:00
7:20 PM,37.0,30.0,76,30.16,5.0,North,12.7,-,N/A,,Haze,10,2013-02-08 01:20:00
7:53 PM,36.0,28.9,76,30.18,6.0,NNW,15.0,-,N/A,,Haze,340,2013-02-08 01:53:00
8:33 PM,36.0,28.9,76,30.17,6.0,NNW,11.5,-,N/A,,Haze,340,2013-02-08 02:33:00
8:53 PM,36.0,28.9,76,30.20,6.0,NNE,13.8,19.6,N/A,,Haze,20,2013-02-08 02:53:00
9:02 PM,35.1,28.9,78,30.18,5.0,North,13.8,-,N/A,,Haze,360,2013-02-08 03:02:00
9:53 PM,35.1,28.0,76,30.22,4.0,North,12.7,-,N/A,,Haze,360,2013-02-08 03:53:00
10:53 PM,34.0,27.0,75,30.25,4.0,NNE,9.2,-,N/A,,Haze,20,2013-02-08 04:53:00
11:53 PM,33.1,26.1,75,30.26,6.0,North,8.1,-,N/A,,Haze,360,2013-02-08 05:53:00